Dewpoint
55 55 54 55 56 57 57 57 57 57 56 54 53 51 51 50 49 48 47 47 47 46 46 46 45 44 44 43 43 43 40 36 34 32 31 31 29 29 29 37 36 35 35
55 56 57 58 57 58 58 58 57 57 57 55 53 53 50 49 48 47 46 47 46 45 45 44 43 43 42 42 42 41 40 38 35 34 31 30 29 30 30 29 33 29 30
56 58 59 59 59 59 59 58 58 58 57 54 53 52 50 49 47 46 46 45 45 44 44 43 43 42 40 41 41 40 38 36 36 32 34 32 32 32 32 33 31 31 30
55 56 56 58 59 59 59 57 57 54 53 53 51 50 48 47 46 45 45 44 44 44 43 42 42 40 40 40 39 38 37 36 36 35 35 35 35 36 34 35 35 35 31
55 55 54 57 58 58 55 54 53 52 51 50 49 48 46 45 45 44 44 44 43 43 43 41 40 41 40 40 39 38 38 38 37 36 35 34 35 34 34 34 33 33 33
58 58 57 56 55 54 52 50 48 48 47 46 45 45 44 44 40 41 43 42 42 41 40 40 39 39 40 37 34 34 33 30 29 29 29 29 30 30 32 32 32 32 31
56 56 55 54 53 51 50 48 47 44 43 43 43 44 42 43 39 40 40 41 39 39 37 37 38 36 34 31 31 30 29 31 31 29 27 26 28 28 31 32 33 33 32
51 50 50 49 49 48 46 44 41 41 40 39 38 39 39 39 38 38 36 36 35 37 37 34 31 29 31 28 26 24 23 23 20 18 21 22 23 24 26 26 26 26 28
48 47 46 45 44 42 40 39 38 38 38 38 38 38 37 37 37 36 35 35 33 30 28 28 27 26 27 27 24 22 21 22 24 26 27 29 30 30 30 28 26 26 24
43 42 41 40 39 38 38 37 37 37 37 38 37 37 36 35 36 36 35 32 27 25 24 23 25 25 25 23 22 23 23 23 24 23 23 26 28 27 29 28 27 27 27
41 40 40 40 39 38 38 38 38 37 36 35 33 32 30 30 29 29 27 24 24 23 22 22 23 22 21 23 25 25 24 21 22 21 20 19 21 23 23 22 24 26 26
40 40 40 40 39 39 38 38 38 36 33 31 29 27 26 26 26 26 25 23 22 22 21 22 22 21 23 24 24 20 20 22 20 19 17 17 18 18 18 18 20 23 27
40 39 39 39 39 38 38 36 35 33 31 29 27 25 23 22 22 22 21 21 20 20 21 20 20 21 23 23 19 18 20 20 18 15 16 15 17 17 17 18 20 21 24
38 38 36 29 29 27 26 29 28 27 27 29 27 24 22 20 20 20 19 21 21 20 20 20 20 22 22 20 20 18 18 17 15 15 15 15 17 15 15 17 18 20 20
30 27 25 26 25 20 19 21 23 25 25 25 25 24 20 19 19 19 19 20 20 21 18 17 19 17 16 15 16 16 16 15 14 14 13 14 13 13 13 15 15 16 17
25 24 24 23 23 18 18 21 25 24 25 25 24 22 22 20 18 17 17 17 18 18 19 16 12 10 13 14 13 13 13 12 12 12 12 11 11 11 12 13 14 15 17
24 24 24 24 22 22 22 22 21 23 23 22 22 22 21 19 17 17 16 16 16 16 16 14 9 8 11 12 12 11 10 10 11 10 10 8 9 10 11 11 12 14 14
25 26 24 24 23 24 25 23 23 23 22 23 22 19 19 18 17 16 18 17 17 16 16 14 12 13 11 10 10 9 9 7 7 8 6 6 8 8 9 8 10 12 13
21 22 24 24 24 25 25 25 25 24 24 23 22 20 19 16 13 15 17 16 15 14 12 11 13 11 10 10 4 1 -7 1 5 -3 4 6 5 8 7 8 9 10 13
25 25 25 24 24 24 24 23 22 22 21 21 21 18 17 14 13 12 14 12 13 12 11 11 10 9 6 6 -3 -10 -6 3 3 3 4 4 6 7 6 8 9 10 11
24 23 23 23 22 22 21 20 20 20 19 19 17 15 14 14 14 15 15 12 11 11 9 9 6 2 -1 -4 2 -4 2 1 2 4 4 5 7 5 7 9 10 11 12
22 21 21 20 19 18 18 19 18 18 17 15 15 15 15 14 15 14 13 10 8 10 9 4 2 1 -0 -0 0 1 2 0 2 4 5 6 6 7 7 9 10 11 12
19 19 19 19 18 16 17 16 15 15 15 14 14 13 13 11 10 10 8 4 8 0 -2 -4 -12 -7 -4 -7 -6 0 2 3 5 6 6 5 6 6 7 8 10 11 13
18 17 17 16 15 15 14 13 13 13 12 10 9 9 7 6 3 3 1 -1 -6 -12 -14 -16 -11 -8 -5 -8 -9 -1 4 6 8 6 6 5 5 5 6 9 11 13 13
16 15 14 13 12 11 10 9 8 6 5 4 2 -0 -0 -4 -8 -13 -15 -16 -12 -17 -14 -13 -13 -9 -8 -8 -6 -2 3 1 2 5 5 5 4 5 8 9 11 12 14
12 11 11 10 8 8 7 5 4 1 -0 -3 -8 -13 -12 -12 -11 -19 -16 -13 -14 -14 -13 -13 -11 -9 -8 -5 -2 4 -3 -1 1 3 3 5 5 6 7 8 9 11 13
Lifted_Index
-1 -1 -1 -1 -1 -1 -1 -1 -1 -0 0 0 0 -1 -1 -1 -1 -0 -0 0 1 1 3 4 6 7 7 7 8 8 8 9 9 9 9 9 9 10 10 10 10 10 10
-2 -2 -1 -1 -1 -1 -2 -1 -1 -0 0 1 0 -1 -1 -1 -1 -0 0 1 1 2 3 5 6 7 7 8 8 9 9 9 9 9 10 10 9 9 10 10 10 9 9
-2 -2 -2 -2 -2 -2 -2 -2 -1 -1 -0 0 -0 -1 -1 -0 0 1 1 2 2 4 5 6 7 8 8 9 9 10 10 10 10 10 10 10 10 10 9 9 9 9 8
-2 -2 -2 -2 -2 -2 -2 -2 -2 -2 -1 -1 -1 -1 -0 1 1 2 2 3 4 5 6 7 8 9 9 10 10 11 11 11 11 11 11 11 10 10 10 10 9 9 8
-2 -2 -2 -2 -2 -3 -3 -3 -2 -2 -2 -1 -1 0 1 2 3 3 4 4 5 6 8 9 10 10 10 11 12 12 12 12 12 12 12 12 11 11 11 10 10 9 9
-3 -3 -3 -3 -3 -3 -3 -3 -2 -2 -1 -0 1 2 2 3 4 4 5 6 7 8 9 10 11 11 12 12 13 13 13 13 13 13 13 12 12 12 11 11 11 10 10
-3 -3 -3 -3 -3 -3 -2 -2 -1 0 1 2 3 3 3 4 5 6 7 8 9 10 11 12 12 12 13 13 14 14 14 14 14 14 14 14 13 13 13 12 12 11 11
-3 -3 -2 -2 -2 -2 -1 0 2 3 4 4 4 4 5 6 7 8 9 10 11 12 12 13 13 13 14 14 15 15 15 16 17 17 16 16 16 15 14 14 13 12 11
-2 -2 -2 -1 -1 0 2 3 4 5 5 5 6 6 7 8 10 11 12 12 12 13 13 14 14 15 15 16 17 17 17 17 18 18 18 18 17 16 15 13 12 11 11
-1 -1 -1 0 2 3 5 6 6 6 6 7 7 9 10 11 12 13 13 13 13 13 14 15 15 16 18 18 18 18 18 18 18 18 18 18 17 16 15 13 12 10 9
0 1 2 3 5 6 7 7 7 7 8 8 9 11 12 12 13 13 13 13 14 14 15 16 17 19 19 19 19 19 19 19 19 18 18 17 17 16 15 14 12 11 9
3 4 5 6 7 7 7 7 8 8 9 10 11 12 13 13 13 14 14 14 15 16 17 18 19 20 20 20 20 20 20 19 19 18 17 17 17 16 15 14 12 11 10
5 6 7 8 8 8 8 8 9 10 10 12 13 14 14 14 14 15 15 16 17 18 19 20 20 20 20 20 20 20 20 19 19 18 17 16 16 15 14 13 12 11 10
7 7 8 8 8 9 10 10 11 12 12 13 14 15 15 15 16 16 17 18 19 20 21 21 21 20 20 20 20 20 20 19 19 18 17 16 15 14 13 12 11 10 9
7 8 8 8 9 10 12 13 13 14 14 15 15 16 16 17 18 19 19 20 21 21 21 20 20 20 20 20 20 20 19 19 18 17 16 15 15 14 13 11 10 9 8
7 8 9 10 11 12 13 14 15 16 16 17 17 18 19 19 20 21 21 22 22 21 21 20 19 19 19 19 19 19 19 18 17 16 16 15 14 14 12 11 9 8 7
9 9 11 12 13 14 15 15 16 17 18 18 19 20 20 21 22 22 22 22 22 21 20 19 19 19 19 19 19 19 18 17 17 16 16 15 14 13 11 10 8 7 5
11 12 13 14 15 16 16 17 17 18 18 18 19 20 20 21 22 22 22 21 21 21 20 20 20 20 20 20 19 18 17 17 17 16 16 15 14 12 11 9 8 6 5
13 14 15 17 17 18 18 18 17 17 17 17 18 20 21 21 21 21 21 21 20 20 20 20 21 21 20 20 19 18 17 17 16 16 16 15 13 12 10 9 8 6 5
16 16 18 18 18 18 18 18 17 17 18 18 19 20 21 22 21 21 21 21 21 21 21 22 22 21 21 20 19 18 17 17 17 16 15 14 13 11 10 9 8 6 5
18 18 18 19 19 18 18 18 18 18 19 19 20 21 22 22 22 21 22 22 23 23 23 22 22 21 21 20 19 18 17 17 17 16 15 14 12 11 10 10 8 7 6
18 18 19 19 19 19 19 19 19 19 20 20 21 22 23 23 22 23 23 24 24 24 23 23 22 21 21 20 19 19 18 17 17 16 14 13 12 11 10 10 8 7 6
19 19 19 19 20 20 20 20 20 20 21 21 22 23 23 24 24 24 24 24 24 24 23 23 22 21 21 20 20 19 18 18 17 16 14 13 12 11 11 10 8 7 6
20 20 19 20 20 20 21 21 21 22 23 23 24 24 24 25 25 25 25 24 24 23 23 23 22 21 21 20 20 19 19 18 17 16 15 13 12 11 11 10 8 7 6
21 21 21 21 21 22 22 22 23 24 24 25 25 25 25 25 25 25 24 24 23 23 23 22 22 21 20 20 19 18 18 17 16 15 15 14 13 12 11 9 8 6 5
22 22 22 22 23 23 23 24 24 25 25 25 26 26 26 25 25 24 24 24 23 23 22 22 21 21 20 19 18 18 17 16 15 15 15 14 13 12 11 9 8 6 5